Flag for U.S.A. Weather past 2 weeks in Lakewood, Colorado, U.S.A.

Now
53 °F

Passing clouds.


Feels Like: 53 °F
Forecast: 48 / 78 °F
Wind: 3 mph from South

Location: Centennial Airport

Current Time: Sep 1, 2014 at 6:03:46 AM

Latest Report: Sep 1, 2014 at 4:53 AM


Visibility: 10 mi

Pressure: 29.92 "Hg

Humidity: 77%

Dew point: 46 °F

Location of LakewoodLocation

Historic Weather in Lakewood — Graph

°F

Lakewood temperature yesterday

Maximum temperature yesterday: 77 °F (at 3:53 PM)
Minimum temperature yesterday: 56 °F (at 11:53 PM)
Average temperature yesterday: 65 °F

Past Weeks' High & Low Weather Summary

 TemperatureHumidityPressure
High88 °F (Aug 17, 1:53 PM)93% (Aug 23, 2:53 AM)30.15 "Hg (Aug 23, 2:53 AM)
Low50 °F (Aug 28, 4:53 AM)14% (Aug 17, 12:53 PM)29.68 "Hg (Aug 31, 5:53 AM)
Average66 °F54%29.92 "Hg
* Reported Aug 17 4:53 AM — Sep 1 4:53 AM, Lakewood, Weather by CustomWeather, © 2014

Note: Actual official high and low records may vary slightly from our data, if they occured in-between our weather recording intervals... More about our weather records

Advertising

Lakewood weather history for previous 24 hours

 ConditionsComfort  
Time TempWeatherWind HumidityBarometerVisibility
4:53 AM
Sep 1
53 °FPassing clouds.3 mph77%29.92 "Hg10 mi
3:53 AM55 °FOvercast.No wind62%29.91 "Hg10 mi
2:53 AM54 °FPassing clouds.No wind64%29.92 "Hg10 mi
1:53 AM56 °FPassing clouds.7 mph65%29.90 "Hg10 mi
12:53 AM56 °FPassing clouds.3 mph81%29.89 "Hg10 mi
11:53 PM
Aug 31
56 °FClear.5 mph77%29.86 "Hg10 mi
10:53 PM58 °FPassing clouds.6 mph72%29.86 "Hg10 mi
9:53 PM60 °FPassing clouds.3 mph65%29.84 "Hg10 mi
8:53 PM60 °FPassing clouds.7 mph67%29.83 "Hg10 mi
7:53 PM65 °FBroken clouds.3 mph54%29.80 "Hg10 mi
6:53 PM68 °FPartly sunny.5 mph49%29.78 "Hg10 mi
5:53 PM68 °FBroken clouds.7 mph49%29.76 "Hg10 mi
4:53 PM74 °FBroken clouds.18 mph40%29.74 "Hg10 mi
3:53 PM77 °FBroken clouds.12 mph36%29.72 "Hg10 mi
2:53 PM76 °FBroken clouds.8 mph36%29.72 "Hg10 mi
1:53 PM73 °FScattered clouds.10 mph37%29.77 "Hg10 mi
12:53 PM72 °FScattered clouds.5 mph40%29.79 "Hg10 mi
11:53 AM71 °FScattered clouds.9 mph41%29.81 "Hg10 mi
10:53 AM68 °FScattered clouds.10 mph45%29.83 "Hg10 mi
9:53 AM66 °FScattered clouds.13 mph54%29.83 "Hg10 mi
8:53 AM64 °FScattered clouds.6 mph54%29.78 "Hg10 mi
7:53 AM64 °FBroken clouds.15 mph45%29.76 "Hg10 mi
6:53 AM66 °FPassing clouds.10 mph40%29.69 "Hg10 mi
Weather by CustomWeather, © 2014

See weather overviewHow to use our weather pages